Location: Arboyeti
(42.1122°N, 44.6017°E)
Time: 20:59:58
(UTC+00:00)

Milstar 3 - Pass Details

Date: 19 April 2021
Orbit: 1089 x 5155 km, 28.3° (Epoch: 08 May)

Event Time Altitude Azimuth Distance (km) Brightness Sun altitude
Exits shadow 23:11:22 25° 150° (SSE) 2,322 4.2 -28.5°
Drops below altitude 10° 23:17:11 10° 111° (ESE) 3,821 5.7 -27.9°
Sets 23:21:45 0° 100° (E) 5,338 6.7 -27.4°
